Regional Weather Roundup
Issued by NWS State College, PA

Home | Current Version | Previous Version | Text Only | Print | Product List | Glossary On
Versions: 1 2 3 4 5 6 7 8 9 10 11 12 13 14 15 16 17 18 19 20 21 22 23 24 25 26 27 28 29 30 31 32 33 34 35 36 37 38 39 40 41 42 43 44 45 46 47 48 49 50
000
ASUS41 KCTP 311610
RWRCTP

REGIONAL WEATHER ROUNDUP
NATIONAL WEATHER SERVICE STATE COLLEGE PA
1200 PM EDT THU JUL 31 2014

Note: "fair" indicates few or no clouds below 12,000 feet with no
significant weather and/or obstructions to visibility.

* = STATION THAT DOES NOT REPORT PRECIPITATION /E.G. RAIN...SNOW...ETC/
    THUNDER OR FOG.

PAZ002>004-007>009-013>016-020>023-029>032-311700-
WESTERN PENNSYLVANIA

CITY           SKY/WX    TMP DP  RH WIND       PRES   REMARKS
ERIE           SUNNY     73  58  59 W10       30.05R
MEADVILLE      MOSUNNY   70  57  63 SW8       30.08S
FRANKLIN*      MOSUNNY   70  55  60 SW13G18   30.11S
NEW CASTLE     FAIR      73  61  66 SW8       30.10S
BEAVER COUNTY  PTSUNNY   70  61  73 W5        30.10S
BUTLER*        PTSUNNY   70  59  68 SW8       30.13S
PITTSBURGH INT MOSUNNY   70  60  70 W8        30.10S
PITTSBURGH     PTSUNNY   72  60  66 W7        30.10F
INDIANA*       PTSUNNY   68  63  83 SW10      30.16S
LATROBE        PTSUNNY   72  64  78 W16       30.13S
WASHINGTON CO* PTSUNNY   72  63  73 SW5       30.12F
$$

PAZ004>006-010>012-017>019-024>028-033>037-041-042-045-046-049>053-311700-
CENTRAL PENNSYLVANIA

CITY           SKY/WX    TMP DP  RH WIND       PRES   REMARKS
BRADFORD       MOSUNNY   66  55  67 W9        30.10S
DUBOIS         CLOUDY    67  60  78 SW6       30.11S
CLEARFIELD     CLOUDY    66  60  81 S9        30.12R
JOHNSTOWN      PTSUNNY   67  56  67 W8        30.14S
ALTOONA        PTSUNNY   70  60  70 S9        30.13S
STATE COLLEGE  CLOUDY    68  61  77 SW10      30.12S
WILLIAMSPORT   CLOUDY    66  59  78 SE8       30.10R
SELINSGROVE    MOSUNNY   72  62  71 VRB6      30.11S
FT INDIANTOWN  SUNNY     76  61  58 W9        30.10F
CAPITAL CITY   SUNNY     76  63  64 SW8       30.10S
HARRISBURG     MOSUNNY   77  63  61 NW8       30.09S
YORK           SUNNY     78  60  53 SW8       30.10S
$$

PAZ038>040-043-044-047-048-054-055-060>062-067>071-311700-
EASTERN PENNSYLVANIA

CITY           SKY/WX    TMP DP  RH WIND       PRES   REMARKS
SCRANTON       MOSUNNY   76  57  51 W15       30.09S
MOUNT POCONO   SUNNY     71  54  54 W14       30.13S
ALLENTOWN      MOSUNNY   78  59  51 S10       30.09F
QUAKERTOWN*    MOSUNNY   75  61  60 SW6       30.11F
READING        MOSUNNY   79  62  56 MISG      30.09S
LANCASTER      MOSUNNY   76  61  59 W8        30.10S
COATESVILLE    SUNNY     75  61  60 CALM      30.13S
POTTSTOWN      MOSUNNY   77  59  53 S9        30.12S
BLUE BELL      MOSUNNY   81  63  54 S6        30.10S
DOYLESTOWN     MOSUNNY   76  60  57 S8        30.10S
WILLOW GROVE   NOT AVBL
NORTH PHILA    PTSUNNY   81  60  48 S10G20    30.11F
PHILADELPHIA   MOSUNNY   81  61  50 SW14      30.10F
$$


USA.gov is the U.S. government's official web portal to all federal, state and local government web resources and services.